Weather reports worldwide

Advertisment
Muret-Lherm, France (7628): temperature & dewpoint: 05.12.2019 09:00:00 - 11.12.2019 09:00:00 (CET)Muret-Lherm, France (7628): wind speed & gusts: 05.12.2019 09:00:00 - 11.12.2019 09:00:00 (CET)Muret-Lherm, France (7628): wind direction: 05.12.2019 09:00:00 - 11.12.2019 09:00:00 (CET)Muret-Lherm, France (7628): reduced air pressure: 05.12.2019 09:00:00 - 11.12.2019 09:00:00 (CET)Muret-Lherm, France (7628): visibility: 05.12.2019 09:00:00 - 11.12.2019 09:00:00 (CET)Muret-Lherm, France (7628): precipitation: 05.12.2019 09:00:00 - 11.12.2019 09:00:00 (CET)
Date & Time tt [°C] td [°C] ff [km/h] ff [kn] fx [km/h] fx [kn] dd ppp [hPa] vv [km] rr [mm]
11.12.2019 09:00:00 5,0 3,7 5 3 9 5 NW 1017,5 18 0,2
11.12.2019 08:00:00 4,4 3,2 4 2 8 4 SSE 1017,7 18 0,0
11.12.2019 07:00:00 4,0 2,8 5 3 5 3 N 1018,0 15 -
11.12.2019 06:00:00 3,8 2,5 2 1 8 4 WNW 1018,5 19 0,0
11.12.2019 05:00:00 3,6 2,3 4 2 13 7 SSE 1019,1 20 0,0
11.12.2019 04:00:00 3,5 2,5 9 5 13 7 SSE 1019,8 16 0,0
11.12.2019 03:00:00 3,1 2,1 5 3 8 4 SSE 1021,0 11 0,0
11.12.2019 02:00:00 2,6 1,6 5 3 11 6 SSW 1021,7 10 0,0
11.12.2019 01:00:00 1,8 0,6 8 4 9 5 S 1022,1 7 -
11.12.2019 00:00:00 0,8 -0,5 8 4 9 5 SW 1023,1 7 0,0
10.12.2019 23:00:00 1,3 0,0 2 1 5 3 S 1023,7 9 0,0
10.12.2019 22:00:00 1,8 0,3 0 0 4 2 N 1024,3 11 -
10.12.2019 21:00:00 2,1 0,6 2 1 5 3 W 1024,7 16 0,0
10.12.2019 20:00:00 2,5 0,7 0 0 5 3 N 1024,8 13 0,0
10.12.2019 19:00:00 3,5 1,0 5 3 8 4 E 1025,1 19 -
10.12.2019 18:00:00 5,1 1,4 4 2 9 5 ENE 1025,3 19 0,0
10.12.2019 17:00:00 8,5 1,2 4 2 9 5 ESE 1025,8 20 0,0
10.12.2019 16:00:00 9,8 2,6 5 3 15 8 NE 1026,6 20 -
10.12.2019 15:00:00 9,9 3,6 5 3 11 6 NE 1026,9 20 0,0
10.12.2019 14:00:00 10,2 5,0 4 2 9 5 E 1027,7 17 0,0
10.12.2019 13:00:00 9,6 5,9 2 1 13 7 NNE 1028,7 18 -
10.12.2019 12:00:00 8,2 5,3 9 5 15 8 ENE 1029,6 17 0,0
10.12.2019 11:00:00 6,6 5,5 8 4 9 5 NE 1031,0 16 0,0
10.12.2019 10:00:00 5,9 5,2 0 0 9 5 N 1031,2 14 -
10.12.2019 09:00:00 2,3 1,3 5 3 11 6 SW 1031,9 0,6 0,0
10.12.2019 08:00:00 2,8 1,6 5 3 8 4 SW 1031,9 0,4 0,0
10.12.2019 07:00:00 4,5 3,3 8 4 18 10 W 1031,8 10 -
10.12.2019 06:00:00 5,1 3,9 13 7 22 12 W 1031,4 11 0,0
10.12.2019 05:00:00 4,9 3,2 11 6 18 10 W 1031,9 11 0,0
10.12.2019 04:00:00 5,2 3,4 13 7 18 10 W 1031,8 13 0,0
10.12.2019 03:00:00 6,3 4,1 13 7 28 15 WNW 1031,7 15 0,0
10.12.2019 02:00:00 7,1 4,7 18 10 31 17 WNW 1031,3 15 0,0
10.12.2019 01:00:00 7,4 5,0 21 11 29 16 WNW 1030,9 15 -
10.12.2019 00:00:00 7,8 5,3 16 9 35 19 WNW 1030,8 17 0,0
09.12.2019 23:00:00 8,4 5,7 22 12 31 17 WNW 1030,0 18 0,0
09.12.2019 22:00:00 8,3 5,8 22 12 46 25 WNW 1029,2 15 0,0
09.12.2019 21:00:00 8,5 5,9 24 13 46 25 WNW 1028,4 17 0,4
09.12.2019 20:00:00 8,4 6,4 29 16 67 36 WNW 1027,6 80 4,0
09.12.2019 19:00:00 9,1 6,0 29 16 52 28 WNW 1026,7 17 -
09.12.2019 18:00:00 9,0 6,3 31 17 65 35 WNW 1025,9 19 1,0
09.12.2019 17:00:00 9,1 6,5 21 11 61 33 WNW 1025,0 15 1,0
09.12.2019 16:00:00 10,2 5,6 39 21 70 38 WNW 1024,2 19 0,0
09.12.2019 15:00:00 9,6 7,0 28 15 59 32 WNW 1023,6 18 1,0
09.12.2019 14:00:00 9,2 7,1 28 15 59 32 NW 1023,1 7 3,0
09.12.2019 13:00:00 10,4 7,6 26 14 83 45 WNW 1023,3 19 -
09.12.2019 12:00:00 11,2 7,1 31 17 55 30 W 1023,0 15 0,0
09.12.2019 11:00:00 10,4 6,5 35 19 55 30 W 1023,5 17 0,2
09.12.2019 10:00:00 9,4 6,7 34 18 50 27 WNW 1023,3 8 0,2
09.12.2019 09:00:00 9,4 6,8 28 15 48 26 W 1022,5 13 0,2
09.12.2019 08:00:00 9,4 6,8 37 20 59 32 W 1021,9 13 0,4
09.12.2019 07:00:00 10,1 6,8 29 16 46 25 W 1021,5 20 -
09.12.2019 06:00:00 9,4 6,5 26 14 46 25 W 1021,7 20 0,0
09.12.2019 05:00:00 9,6 6,9 29 16 50 27 W 1021,7 18 0,2
09.12.2019 04:00:00 10,3 6,3 28 15 41 22 WNW 1021,8 19 0,0
09.12.2019 03:00:00 10,4 6,5 18 10 34 18 W 1022,2 18 0,0
09.12.2019 02:00:00 9,9 6,4 11 6 31 17 WSW 1022,2 16 0,0
09.12.2019 01:00:00 10,1 7,0 15 8 42 23 W 1023,0 15 -
09.12.2019 00:00:00 10,4 7,5 21 11 39 21 W 1023,1 16 0,0
08.12.2019 23:00:00 10,8 7,7 21 11 31 17 W 1023,2 18 0,0
08.12.2019 22:00:00 11,1 7,6 18 10 48 26 W 1023,0 19 0,0
08.12.2019 21:00:00 12,4 9,6 28 15 48 26 WNW 1022,3 20 0,0
08.12.2019 20:00:00 12,9 11,3 22 12 41 22 W 1021,2 6 0,6
08.12.2019 19:00:00 12,9 11,5 22 12 31 17 W 1020,1 4,5 -
08.12.2019 18:00:00 12,8 11,4 16 9 24 13 W 1019,6 16 1,0
08.12.2019 17:00:00 13,1 11,2 9 5 34 18 W 1019,4 14 0,8
08.12.2019 16:00:00 15,3 9,0 22 12 35 19 W 1019,2 19 0,0
08.12.2019 15:00:00 17,4 8,0 16 9 24 13 W 1018,6 20 0,0
08.12.2019 14:00:00 17,3 8,7 9 5 16 9 SW 1019,1 20 0,0
08.12.2019 13:00:00 16,5 8,7 8 4 16 9 SW 1020,0 20 -
08.12.2019 12:00:00 14,2 7,9 11 6 15 8 S 1021,2 20 0,0
08.12.2019 11:00:00 11,1 7,0 9 5 18 10 S 1022,2 20 0,0
08.12.2019 10:00:00 9,5 6,4 13 7 16 9 S 1022,5 20 0,0
08.12.2019 09:00:00 7,6 5,2 11 6 16 9 S 1022,4 20 0,0
08.12.2019 08:00:00 6,9 5,0 11 6 18 10 S 1022,6 20 0,0
08.12.2019 07:00:00 6,9 5,0 9 5 13 7 S 1022,7 20 -
08.12.2019 06:00:00 5,6 4,1 9 5 13 7 S 1022,7 20 0,0
08.12.2019 05:00:00 5,9 4,4 8 4 11 6 S 1022,7 19 0,0
08.12.2019 04:00:00 7,7 6,0 8 4 11 6 SSW 1023,0 18 0,0
08.12.2019 03:00:00 8,7 6,8 8 4 11 6 S 1023,6 17 0,0
08.12.2019 02:00:00 9,1 7,2 5 3 9 5 S 1023,8 15 0,0
08.12.2019 01:00:00 9,4 7,5 5 3 9 5 S 1024,0 15 -
08.12.2019 00:00:00 9,5 7,4 5 3 9 5 S 1024,5 10 0,0
07.12.2019 23:00:00 9,7 7,5 8 4 15 8 S 1024,5 18 0,0
07.12.2019 22:00:00 9,9 7,5 8 4 13 7 S 1024,6 18 0,0
07.12.2019 21:00:00 10,4 8,0 8 4 9 5 S 1024,7 19 0,0
07.12.2019 20:00:00 10,4 8,2 0 0 5 3 N 1024,9 18 0,0
07.12.2019 19:00:00 10,7 8,3 4 2 4 2 S 1024,7 20 -
07.12.2019 18:00:00 11,2 8,1 4 2 8 4 NNE 1024,1 20 0,0
07.12.2019 17:00:00 12,4 7,9 5 3 9 5 N 1023,3 20 0,0
07.12.2019 16:00:00 13,3 7,5 4 2 13 7 NNW 1023,0 20 0,0
07.12.2019 15:00:00 13,7 7,9 8 4 15 8 N 1022,9 20 0,0
07.12.2019 14:00:00 12,5 8,4 5 3 11 6 NNE 1023,5 19 0,0
07.12.2019 13:00:00 11,6 8,4 5 3 11 6 ENE 1024,1 19 -
07.12.2019 12:00:00 12,1 9,1 8 4 11 6 SSW 1024,6 18 0,0
07.12.2019 11:00:00 8,9 7,3 9 5 13 7 S 1025,3 15 0,0
07.12.2019 10:00:00 6,9 6,0 8 4 13 7 S 1025,2 14 0,0
07.12.2019 09:00:00 5,7 5,0 9 5 13 7 S 1025,1 13 0,0
07.12.2019 08:00:00 5,1 4,4 11 6 13 7 S 1025,1 16 0,0
07.12.2019 07:00:00 4,9 4,2 8 4 16 9 SSW 1024,6 11 -
07.12.2019 06:00:00 3,6 2,9 11 6 16 9 S 1024,2 14 0,0
07.12.2019 05:00:00 1,2 0,3 5 3 9 5 SSW 1023,9 6 0,0
07.12.2019 04:00:00 1,7 0,8 4 2 8 4 SSW 1023,8 4,9 0,0
07.12.2019 03:00:00 1,8 1,1 8 4 15 8 S 1024,0 6 0,0
07.12.2019 02:00:00 2,5 1,8 11 6 16 9 S 1023,9 6 0,0
07.12.2019 01:00:00 2,0 1,3 8 4 9 5 S 1024,6 0,4 -
07.12.2019 00:00:00 2,6 1,9 5 3 8 4 S 1024,5 0,1 0,0
06.12.2019 23:00:00 2,1 1,4 0 0 5 3 N 1024,1 0,3 0,0
06.12.2019 22:00:00 2,5 1,8 4 2 8 4 S 1023,4 0,2 0,2
06.12.2019 21:00:00 3,2 2,5 2 1 4 2 S 1023,3 0,1 0,0
06.12.2019 20:00:00 3,8 3,1 0 0 5 3 N 1023,1 0,1 0,0
06.12.2019 19:00:00 3,9 3,2 0 0 13 7 N 1022,7 0,1 -
06.12.2019 18:00:00 5,2 4,5 9 5 13 7 NNW 1022,5 0,1 0,0
06.12.2019 17:00:00 6,1 5,4 4 2 8 4 NW 1022,3 0,1 0,0
06.12.2019 16:00:00 6,9 6,3 4 2 8 4 NNE 1022,6 0,2 0,0
06.12.2019 15:00:00 7,0 6,4 2 1 11 6 ENE 1023,1 0,6 0,0
06.12.2019 14:00:00 6,8 6,2 5 3 9 5 NNE 1023,7 0,4 0,0
06.12.2019 13:00:00 6,4 5,8 2 1 9 5 NNE 1024,5 0,1 -
06.12.2019 12:00:00 5,5 4,9 2 1 5 3 ESE 1025,5 0,1 0,0
06.12.2019 11:00:00 4,9 4,2 4 2 9 5 WNW 1026,1 0,2 0,0
06.12.2019 10:00:00 4,3 3,6 5 3 9 5 WSW 1025,9 0,2 0,0
06.12.2019 09:00:00 2,8 2,1 5 3 13 7 SW 1025,7 0,2 0,0
06.12.2019 08:00:00 1,7 0,8 9 5 11 6 S 1025,7 0,7 0,0
06.12.2019 07:00:00 1,9 1,0 5 3 11 6 S 1025,2 2,5 -
06.12.2019 06:00:00 2,5 1,6 8 4 9 5 S 1024,8 0,3 0,0
06.12.2019 05:00:00 3,2 2,3 5 3 11 6 WNW 1024,8 0,1 0,0
06.12.2019 04:00:00 1,9 0,9 4 2 8 4 ESE 1024,8 0,7 0,0
06.12.2019 03:00:00 2,3 1,3 2 1 8 4 NW 1024,5 0,2 0,0
06.12.2019 02:00:00 2,7 1,5 2 1 5 3 SW 1024,4 0,2 0,0
06.12.2019 01:00:00 3,4 2,2 4 2 5 3 SSE 1024,7 0,4 -
06.12.2019 00:00:00 5,6 4,4 2 1 11 6 N 1025,4 1,3 0,0
05.12.2019 23:00:00 6,6 5,5 2 1 5 3 W 1025,1 6 0,0
05.12.2019 22:00:00 6,3 5,3 4 2 5 3 SSW 1025,0 6 0,0
05.12.2019 21:00:00 6,4 5,3 0 0 5 3 N 1025,0 7 0,0
05.12.2019 20:00:00 5,8 4,3 2 1 5 3 SW 1024,6 12 0,0
05.12.2019 19:00:00 7,0 5,3 2 1 4 2 SSE 1024,2 5 -
05.12.2019 18:00:00 8,4 5,7 2 1 8 4 S 1023,8 19 0,0
05.12.2019 17:00:00 10,6 6,3 2 1 9 5 SSW 1023,3 20 0,0
05.12.2019 16:00:00 11,4 6,9 8 4 9 5 SE 1023,0 20 0,0
05.12.2019 15:00:00 11,1 6,6 5 3 8 4 SE 1022,8 4,8 0,0
05.12.2019 14:00:00 11,2 6,5 4 2 5 3 E 1022,7 18 0,0
05.12.2019 13:00:00 10,8 6,2 4 2 8 4 ESE 1022,9 18 -
05.12.2019 12:00:00 10,8 6,0 0 0 5 3 N 1023,5 20 0,0
05.12.2019 11:00:00 8,1 6,1 4 2 8 4 SW 1023,6 20 0,0
05.12.2019 10:00:00 8,0 6,8 5 3 11 6 S 1023,1 20 0,0
05.12.2019 09:00:00 4,5 3,3 2 1 5 3 SW 1022,4 16 0,0

tt = temperature
td = dewpoint
ff = wind speed
fx = gusts
dd = wind direction
ppp = reduced air pressure
vv = visibility
rr = precipitation

Next stations